NM4SH Weather Reports


Display with metric or nautical units.
time (UTC)temp
F
wind
direction
speed
MPH
gust
MPH
rain 1hr
in
rain 24hr
in
rain mn
in
humidity
%
barometer
mb
20190718021837 76 261 0.0 0.0 0.07 0.09 0.08 92 1010.2
20190718020335 77 261 0.0 1.0 0.07 0.09 0.08 87 1010.1
20190718014831 79 261 1.0 5.0 0.07 0.09 0.08 82 1010.0
20190718013330 87 47 2.0 6.0 0.00 0.02 0.01 64 1010.3
20190718011828 88 276 0.0 2.0 0.00 0.02 0.01 74 1009.6
20190718010328 88 276 1.0 2.0 0.00 0.02 0.01 72 1009.5
20190718004824 89 276 0.0 1.0 0.00 0.02 0.01 72 1008.9
20190718003327 89 127 1.0 2.0 0.00 0.02 0.01 70 1009.0
20190718001823 89 61 0.0 2.0 0.00 0.02 0.01 70 1009.2
20190718000320 90 70 0.0 2.0 0.00 0.02 0.01 68 1009.2
20190717234820 91 136 0.0 2.0 0.00 0.02 0.01 67 1009.1
20190717233321 91 70 0.0 2.0 0.00 0.02 0.01 66 1009.1
20190717231822 92 114 0.0 3.0 0.00 0.02 0.01 65 1009.4
20190717230336 93 59 1.0 4.0 0.00 0.02 0.01 63 1009.5
20190717224837 93 51 0.0 6.0 0.00 0.02 0.01 61 1009.5
20190717223333 93 67 1.0 5.0 0.00 0.02 0.01 59 1009.5
20190717221833 95 142 0.0 4.0 0.00 0.02 0.01 57 1009.5
20190717220328 95 157 1.0 3.0 0.00 0.02 0.01 57 1009.5
20190717214830 95 82 1.0 3.0 0.00 0.02 0.01 59 1009.5
20190717213330 95 66 2.0 5.0 0.00 0.02 0.01 56 1009.2
20190717211831 95 66 1.0 3.0 0.00 0.02 0.01 56 1009.4
20190717210325 95 62 1.0 4.0 0.00 0.02 0.01 54 1009.5
20190717204824 95 75 1.0 4.0 0.00 0.02 0.01 55 1009.9
20190717203320 95 58 1.0 4.0 0.00 0.02 0.01 54 1010.0
20190717201840 95 51 1.0 6.0 0.00 0.02 0.01 55 1010.1
20190717200340 96 76 1.0 6.0 0.00 0.02 0.01 52 1010.2
20190717194836 96 252 2.0 4.0 0.01 0.02 0.01 53 1010.5
20190717193338 96 103 1.0 6.0 0.01 0.02 0.01 54 1010.5
20190717191835 96 242 2.0 5.0 0.01 0.02 0.01 54 1010.9
20190717190333 96 68 2.0 6.0 0.01 0.02 0.01 56 1011.1
20190717184829 96 37 2.0 5.0 0.00 0.01 0.00 55 1011.3
20190717183328 96 275 1.0 6.0 0.00 0.01 0.00 57 1011.5
20190717181823 96 49 1.0 6.0 0.00 0.01 0.00 56 1011.6
20190717180326 95 60 1.0 5.0 0.00 0.01 0.00 58 1011.6
20190717174821 95 66 2.0 4.0 0.00 0.01 0.00 59 1012.0
20190717173337 95 297 1.0 5.0 0.00 0.01 0.00 60 1012.1
20190717171837 95 56 1.0 3.0 0.00 0.01 0.00 60 1012.1
20190717170332 94 86 1.0 3.0 0.00 0.01 0.00 62 1012.3
20190717164833 93 60 1.0 6.0 0.00 0.01 0.00 66 1012.4
20190717163328 93 89 1.0 6.0 0.00 0.01 0.00 65 1012.6
20190717161827 92 72 0.0 6.0 0.00 0.01 0.00 67 1012.6
20190717160322 91 79 1.0 4.0 0.00 0.01 0.00 68 1012.7
20190717154822 91 278 1.0 4.0 0.00 0.01 0.00 70 1012.7
20190717153339 90 69 1.0 7.0 0.00 0.01 0.00 70 1012.7
20190717151835 89 90 0.0 2.0 0.00 0.01 0.00 75 1012.7
20190717150335 88 71 1.0 4.0 0.00 0.01 0.00 77 1013.0
20190717144830 87 32 1.0 3.0 0.00 0.01 0.00 79 1012.9
20190717143331 86 58 0.0 2.0 0.00 0.01 0.00 80 1012.9
20190717141826 86 61 1.0 3.0 0.00 0.01 0.00 80 1013.1
20190717140324 85 101 0.0 1.0 0.00 0.01 0.00 83 1013.1
20190717134820 84 68 0.0 2.0 0.00 0.01 0.00 82 1013.2
20190717133323 84 73 0.0 2.0 0.00 0.01 0.00 84 1013.2
20190717131820 83 236 2.0 5.0 0.00 0.01 0.00 84 1013.3
20190717130321 83 72 1.0 5.0 0.00 0.01 0.00 84 1013.4
20190717124837 82 50 1.0 3.0 0.00 0.01 0.00 85 1013.4
20190717123333 81 58 0.0 1.0 0.00 0.01 0.00 87 1013.3
20190717121834 81 295 0.0 3.0 0.00 0.01 0.00 87 1013.3
20190717120328 81 56 0.0 3.0 0.00 0.01 0.00 87 1013.3
20190717114827 80 52 0.0 3.0 0.00 0.01 0.00 88 1013.2
20190717113323 79 205 1.0 2.0 0.00 0.01 0.00 89 1013.2
20190717111823 79 60 0.0 2.0 0.00 0.01 0.00 90 1013.2
20190717110337 79 60 0.0 1.0 0.00 0.01 0.00 90 1013.2
20190717104837 79 60 0.0 1.0 0.00 0.01 0.00 89 1013.2
20190717103333 79 60 0.0 1.0 0.00 0.01 0.00 89 1013.2
20190717101836 79 60 0.0 2.0 0.00 0.01 0.00 89 1013.2
20190717100333 79 59 0.0 1.0 0.00 0.01 0.00 88 1013.2
20190717094827 79 59 0.0 2.0 0.00 0.01 0.00 88 1013.3
20190717093329 79 59 0.0 1.0 0.00 0.01 0.00 87 1013.2
20190717090321 79 59 0.0 1.0 0.00 0.01 0.00 86 1013.1
20190717084841 79 59 0.0 1.0 0.00 0.01 0.00 86 1013.0
20190717083339 79 59 0.0 1.0 0.00 0.01 0.00 86 1012.9
20190717081835 80 59 0.0 3.0 0.00 0.01 0.00 85 1013.1
20190717080333 80 75 0.0 2.0 0.00 0.01 0.00 85 1013.1
20190717074828 80 75 0.0 2.0 0.00 0.01 0.00 85 1013.2
20190717073330 79 58 0.0 2.0 0.00 0.01 0.00 85 1013.3
20190717071825 79 44 0.0 1.0 0.00 0.01 0.00 86 1013.4
20190717070343 79 52 0.0 3.0 0.00 0.01 0.00 86 1013.5
20190717064837 79 49 0.0 0.0 0.00 0.01 0.00 87 1013.6
20190717063332 79 49 0.0 0.0 0.00 0.01 0.00 88 1013.6
20190717061831 79 49 0.0 2.0 0.00 0.01 0.00 89 1013.7
20190717060325 79 41 0.0 0.0 0.00 0.01 0.00 90 1013.7
20190717054823 78 41 0.0 0.0 0.00 0.01 0.00 89 1013.7
20190717053339 78 41 0.0 0.0 0.00 0.01 0.00 90 1013.8
20190717051833 78 41 0.0 0.0 0.00 0.01 0.00 90 1013.9
20190717050330 77 41 0.0 0.0 0.00 0.01 0.00 90 1014.0
20190717044828 77 41 0.0 0.0 0.00 0.01 0.01 91 1013.8
20190717043330 77 41 0.0 0.0 0.00 0.01 0.01 92 1013.9
20190717041826 77 41 0.0 0.0 0.00 0.01 0.01 92 1014.1
20190717040322 76 41 0.0 0.0 0.00 0.01 0.01 92 1014.3
20190717034838 76 41 0.0 0.0 0.01 0.01 0.01 92 1014.6
20190717033336 77 41 0.0 0.0 0.01 0.01 0.01 91 1014.7
20190717031835 77 41 0.0 0.0 0.01 0.01 0.01 89 1014.7
20190717030332 78 41 0.0 0.0 0.01 0.01 0.01 87 1014.7
20190717024827 79 41 0.0 0.0 0.00 0.00 0.00 85 1014.7
20190717023322 79 41 0.0 0.0 0.00 0.00 0.00 83 1014.7